Vertical_Velocity
-1 0 -4 0 1 1 -0 -1 1 1 1 2 2 -0 2 -2 -3 -1 1 1 -1 -0 3 1 -2 -3 -2 -1 -1 -0 -0 -1 -2 -4 -1 -1 -3 -1 -1 1 -1 -2 -1
1 2 0 -1 0 -3 1 3 1 2 -0 1 2 2 1 -3 -3 -2 -2 0 5 8 1 -3 -0 -1 -1 2 1 0 -2 -2 0 -2 -1 -1 -1 -2 1 0 -0 -5 -2
-2 3 3 -2 -2 -0 -0 -0 -1 -0 1 2 3 1 -0 -1 -1 -7 4 3 3 2 -1 -2 -2 -3 1 3 0 -1 2 1 -1 -0 -0 -0 -1 -2 5 -0 4 -2 -3
-0 -1 -1 0 2 -1 -1 1 -2 -1 2 1 1 1 1 -0 -6 4 -2 1 4 4 -3 -3 2 2 2 -0 1 2 -0 1 1 -0 1 -0 -0 2 2 3 -1 4 -4
1 0 -3 -0 2 -0 2 2 -2 1 -0 -1 1 -0 -1 -2 -2 6 -0 -0 -0 -2 -1 2 4 5 -0 -2 2 3 1 3 1 0 1 2 0 -2 -1 -1 0 1 1
0 2 -0 1 1 -2 1 0 0 4 -2 -0 -2 -2 1 -3 2 2 2 0 -6 -2 0 5 7 6 0 -7 -6 -2 -3 -1 -2 -1 -1 2 3 2 -1 -1 -1 3 1
1 -3 1 2 2 -1 1 0 1 1 1 1 0 3 -1 -3 1 -3 2 7 -1 -6 -9 6 3 7 -3 2 -3 -3 -3 -3 -4 -1 1 -2 -1 -0 -1 0 -1 -4 -2
1 -1 -1 3 2 2 2 2 2 1 1 1 1 5 2 -5 -0 1 7 1 -2 2 2 -4 -4 3 7 6 -0 1 -3 -2 2 -1 1 -0 1 -1 -0 0 -1 4 1
0 0 -4 3 -2 1 1 -1 1 1 1 2 1 2 6 -1 -2 5 6 0 -6 -2 1 -3 -4 -4 -2 1 0 2 4 1 0 2 1 -0 0 0 1 2 -1 -6 -3
-2 -1 -2 -2 1 -1 -3 0 2 3 -0 1 1 -1 1 1 -3 3 6 -1 2 3 -1 -5 2 -0 0 0 -3 6 5 2 -4 -9 -8 -2 0 6 -2 -2 0 4 -4
-1 0 1 0 1 1 -1 1 -5 3 1 -1 -2 0 -1 -3 -3 -0 2 -8 6 2 2 -1 -4 -9 -2 1 -1 -6 0 9 3 3 -3 -20 -6 -5 -1 7 3 -3 1
2 2 3 -0 1 2 0 0 -1 2 0 2 1 -1 4 -3 -4 -5 -5 -2 -2 -0 3 0 0 -5 1 -8 -10 -9 -6 -4 -7 -8 -5 0 -0 3 9 4 4 3 6
1 1 3 4 -1 -0 0 -1 -0 -5 5 0 3 2 0 4 -3 -3 -6 -8 -12 -2 1 1 -5 -7 -3 -5 -7 -7 -13 -19 -21 -9 3 -7 2 2 2 9 8 5 -0
1 0 4 0 -0 -0 3 -1 0 -1 -2 4 -0 -3 -1 1 6 -0 1 3 -1 -4 -7 -2 3 -3 -9 -7 -8 -11 -15 -21 -12 2 -3 2 -0 -1 2 -4 2 5 -2
1 4 2 -1 1 2 0 2 0 2 -3 -1 5 -2 -3 -1 1 4 1 4 -2 -1 5 0 2 6 -4 -6 -17 -11 -8 -12 -6 -4 -7 -3 -4 -1 4 -3 -1 2 2
7 -4 -4 2 3 3 3 -0 1 1 3 -2 -1 -2 0 2 3 -2 4 1 -1 -1 -1 -1 2 -2 -9 -9 -1 2 -6 -2 -1 0 -7 -4 -5 -1 4 -3 1 2 3
6 1 3 5 5 5 5 0 2 1 3 3 3 -5 1 2 4 -2 4 2 3 -0 -1 -2 -7 -9 -13 -4 -16 -6 -7 -9 -5 -3 -4 -4 -6 -3 -0 -4 1 -1 2
1 2 -1 2 1 5 6 3 0 5 6 6 10 4 -2 3 0 9 0 1 5 -3 -2 3 -7 -7 -4 -9 -6 -9 -2 -6 -5 -0 -2 -3 -2 -2 1 -1 -1 1 3
0 -3 4 1 5 4 8 8 2 0 10 5 21 1 3 3 1 -0 5 2 3 -1 -3 1 -6 -1 -4 -8 -2 -13 -7 -1 -4 -6 2 -6 -4 -3 -0 1 -3 1 0
-1 -4 -1 3 0 -4 -4 5 5 10 9 15 1 2 3 5 -2 1 3 1 -1 -2 -3 0 -5 -4 -5 -7 -2 -8 -2 -5 -3 -9 -4 -2 -4 -3 -1 2 -1 2 2
1 1 3 0 1 3 6 4 4 9 11 6 1 3 5 5 -1 3 2 -1 -3 -3 -6 -2 -5 -5 -6 -5 -1 -1 -1 -5 -5 -4 -4 -3 -1 -1 -1 1 -2 2 4
35 -2 -1 -6 3 3 6 9 3 10 3 5 4 3 6 2 1 3 1 -3 -5 -4 -4 -4 -3 -2 -2 -7 2 -3 1 -4 -6 -6 -3 1 1 0 2 1 2 0 -2
7 31 14 23 13 -9 8 12 -2 4 2 1 8 7 6 3 -3 2 -1 -5 1 -3 -3 -4 -3 -1 0 3 2 1 -3 -4 -2 -3 -5 -2 2 6 3 2 0 -1 3
-11 1 24 2 -1 -4 4 -0 1 2 10 3 7 6 4 1 -1 -2 -2 -1 -1 -5 -1 -2 -4 -1 -2 1 -3 1 -1 -3 -5 -3 2 -3 -2 1 5 5 5 6 3
-7 13 4 6 1 5 3 -2 0 6 9 2 6 1 4 1 -1 -1 0 -1 -5 -1 -1 -1 -2 -2 -1 -0 1 5 -6 -2 1 -2 -2 -1 -1 -1 0 1 1 -1 -1
5 7 8 1 2 4 5 -5 6 7 5 3 4 2 1 -0 -0 -2 -1 -4 -1 0 -3 -1 1 -3 1 -0 0 2 3 -3 2 0 -2 -2 0 -1 -2 -0 2 5 -1
Height
5835 5835 5833 5831 5829 5828 5826 5826 5827 5828 5828 5828 5829 5828 5830 5828 5827 5827 5830 5830 5830 5831 5831 5831 5831 5831 5832 5832 5832 5832 5832 5832 5832 5833 5833 5834 5834 5834 5834 5833 5832 5832 5831
5829 5826 5825 5824 5822 5821 5820 5820 5820 5820 5820 5821 5821 5822 5822 5821 5821 5821 5820 5823 5826 5826 5825 5824 5823 5823 5824 5825 5826 5825 5825 5824 5825 5825 5826 5826 5827 5827 5826 5826 5826 5826 5827
5824 5821 5817 5815 5815 5814 5814 5814 5814 5813 5814 5814 5815 5814 5814 5815 5815 5813 5815 5817 5818 5818 5818 5816 5816 5816 5817 5818 5818 5817 5817 5817 5817 5817 5817 5817 5818 5817 5816 5817 5818 5818 5818
5815 5813 5810 5808 5808 5807 5807 5807 5807 5807 5807 5807 5807 5807 5808 5807 5807 5808 5808 5808 5809 5809 5809 5809 5809 5809 5808 5808 5808 5808 5808 5808 5807 5807 5806 5806 5806 5806 5807 5806 5808 5807 5809
5807 5806 5802 5801 5801 5800 5800 5800 5800 5800 5800 5799 5800 5799 5799 5800 5800 5801 5801 5800 5800 5800 5801 5801 5800 5801 5800 5798 5798 5797 5796 5796 5795 5795 5795 5795 5794 5794 5794 5795 5796 5797 5797
5799 5797 5795 5794 5794 5793 5793 5792 5792 5792 5792 5792 5792 5791 5791 5791 5792 5793 5792 5791 5790 5790 5791 5792 5792 5790 5789 5786 5785 5785 5784 5784 5783 5783 5782 5782 5782 5782 5781 5781 5782 5783 5785
5791 5789 5787 5787 5787 5786 5786 5785 5784 5784 5783 5783 5783 5783 5782 5782 5783 5782 5782 5781 5781 5780 5781 5781 5780 5778 5776 5775 5775 5774 5772 5770 5769 5769 5768 5767 5767 5767 5767 5767 5767 5768 5770
5780 5781 5779 5778 5778 5777 5777 5777 5776 5775 5774 5774 5774 5773 5772 5772 5772 5773 5773 5772 5771 5770 5770 5769 5769 5767 5765 5763 5761 5760 5758 5757 5755 5753 5752 5752 5751 5751 5750 5749 5750 5751 5752
5770 5771 5770 5770 5770 5769 5769 5768 5768 5768 5766 5765 5763 5763 5762 5761 5763 5763 5761 5760 5759 5759 5758 5756 5755 5754 5753 5750 5747 5746 5743 5741 5739 5736 5734 5734 5733 5732 5731 5731 5732 5734 5736
5759 5760 5760 5761 5761 5760 5759 5759 5759 5759 5757 5755 5754 5753 5752 5751 5751 5752 5751 5749 5748 5747 5744 5742 5741 5740 5739 5738 5735 5733 5731 5726 5722 5718 5716 5715 5713 5711 5710 5710 5710 5711 5715
5749 5749 5749 5749 5749 5750 5749 5749 5749 5748 5747 5746 5744 5744 5741 5739 5738 5738 5737 5736 5736 5733 5731 5729 5727 5726 5724 5721 5719 5716 5714 5709 5705 5701 5697 5692 5690 5686 5685 5682 5683 5686 5690
5737 5737 5737 5736 5736 5736 5735 5736 5736 5737 5736 5735 5733 5733 5731 5728 5727 5725 5723 5721 5721 5720 5719 5716 5714 5711 5710 5707 5704 5699 5697 5691 5683 5677 5669 5662 5655 5652 5650 5650 5651 5656 5662
5724 5723 5724 5724 5723 5722 5723 5723 5723 5722 5723 5722 5722 5721 5720 5717 5715 5713 5710 5708 5708 5708 5707 5705 5702 5698 5698 5694 5687 5682 5675 5668 5661 5650 5634 5627 5623 5621 5623 5623 5626 5629 5635
5710 5710 5711 5710 5709 5708 5708 5708 5708 5707 5708 5709 5709 5707 5707 5705 5703 5700 5699 5698 5697 5698 5698 5695 5691 5684 5682 5678 5668 5662 5653 5642 5632 5619 5610 5604 5605 5604 5605 5607 5608 5610 5615
5696 5695 5695 5695 5695 5694 5694 5694 5695 5695 5693 5695 5696 5693 5692 5691 5690 5689 5687 5686 5686 5685 5685 5683 5679 5671 5665 5658 5649 5639 5625 5617 5610 5603 5597 5592 5589 5590 5592 5589 5591 5593 5597
5680 5678 5679 5679 5680 5680 5679 5680 5681 5681 5680 5680 5681 5679 5679 5677 5676 5675 5675 5675 5674 5672 5671 5670 5664 5658 5650 5644 5634 5622 5606 5598 5594 5588 5584 5578 5575 5575 5574 5573 5575 5578 5582
5666 5664 5665 5665 5665 5666 5666 5666 5668 5667 5667 5666 5665 5665 5665 5665 5663 5662 5663 5663 5663 5661 5658 5655 5648 5641 5636 5628 5618 5608 5596 5589 5584 5576 5570 5566 5563 5562 5561 5561 5564 5567 5571
5650 5650 5650 5650 5651 5651 5651 5652 5653 5653 5653 5651 5651 5651 5651 5651 5650 5650 5651 5652 5651 5649 5647 5642 5634 5628 5620 5613 5603 5594 5587 5579 5573 5566 5560 5556 5552 5550 5550 5551 5555 5558 5560
5635 5635 5634 5635 5636 5636 5637 5637 5637 5639 5638 5637 5637 5637 5638 5639 5638 5639 5640 5640 5640 5638 5634 5628 5622 5616 5609 5601 5593 5586 5580 5573 5564 5556 5552 5547 5543 5540 5539 5542 5547 5549 5551
5617 5618 5619 5619 5619 5621 5623 5623 5623 5624 5623 5623 5623 5624 5626 5627 5626 5628 5629 5628 5628 5625 5621 5617 5611 5605 5599 5591 5586 5580 5573 5567 5557 5549 5545 5541 5537 5534 5533 5536 5540 5542 5545
5596 5599 5601 5604 5606 5607 5609 5609 5608 5609 5608 5608 5609 5610 5612 5613 5614 5616 5616 5616 5616 5612 5609 5604 5600 5595 5588 5584 5580 5574 5568 5562 5553 5547 5540 5536 5533 5531 5531 5531 5534 5537 5538
5581 5582 5585 5589 5591 5593 5594 5594 5594 5595 5593 5594 5596 5597 5599 5600 5602 5604 5605 5604 5603 5600 5597 5594 5590 5584 5579 5576 5572 5569 5564 5558 5550 5545 5540 5535 5532 5530 5529 5529 5530 5531 5533
5558 5559 5568 5571 5572 5576 5578 5579 5580 5581 5582 5583 5585 5586 5587 5588 5592 5594 5594 5594 5591 5588 5586 5583 5579 5575 5572 5568 5566 5562 5559 5555 5550 5544 5540 5537 5533 5530 5529 5527 5527 5529 5531
5545 5546 5550 5555 5557 5562 5563 5565 5568 5570 5572 5573 5575 5575 5577 5579 5581 5584 5584 5581 5579 5578 5575 5573 5569 5566 5564 5563 5560 5557 5554 5550 5547 5543 5540 5537 5534 5532 5529 5527 5526 5526 5526
5533 5535 5538 5538 5544 5549 5551 5554 5556 5559 5563 5564 5565 5566 5567 5570 5572 5574 5572 5570 5569 5567 5564 5561 5559 5557 5555 5554 5553 5552 5550 5545 5544 5541 5538 5535 5533 5531 5529 5528 5527 5526 5525
5520 5524 5524 5527 5532 5536 5539 5544 5546 5550 5553 5554 5555 5556 5558 5560 5562 5563 5562 5561 5558 5557 5555 5553 5550 5549 5548 5547 5546 5545 5544 5541 5539 5537 5535 5533 5531 5529 5528 5526 5525 5525 5525